Lemur-2 Embrionovis

operational
NORAD ID: 56970 Int'l Des: 2023-084 Owner: SPIRE/ORORA Country: US Constellation: spire
LEOCIRCULARRETROGRADESSO

About Lemur-2 Embrionovis

Description loading...

Live Position

Loading 3D Globe...

Upcoming Passes

Altitude History

Altitude vs Time

uPlot chart will show altitude changes over time

Two-Line Element Set

1 56970U 23084AQ 26049.95537963 .00006853 00000-0 20868-3 0 9991
2 56970 97.6101 190.0466 0009634 22.4655 337.7007 15.34293322149538
Epoch: Feb 18, 2026 • Age: 11 hours

Current Status

Altitude 492.8 km
Velocity 7.62 km/s
Sub-Earth Point -80.32°S, 50.46°W
Launch Date Jun 12, 2023
Age 2.6 years
Type other

Technical Details

Classification Payload
Mass 10.00 kg
Dry Mass 10.00 kg
Total Mass 10.00 kg
Length 0.30 m
Diameter 0.20 m
Span 0.30 m
Shape Box
Manufacturer SPIREG
Bus Type Cubesat 6U
Phase Status In Orbit
Owner/State SPIRE/ORORA/US

Large Constellations

Loading constellations...